Year,Month,Day,Hour,Minute,Value (Times are PST for temperature in C)
2010,08,14,00,00,24.10
2010,08,14,00,01,24.10
2010,08,14,00,02,24.10
2010,08,14,00,03,24.10
2010,08,14,00,04,24.10
2010,08,14,00,05,24.10
2010,08,14,00,06,24.10
2010,08,14,00,07,24.10
2010,08,14,00,08,24.00
2010,08,14,00,09,23.90
2010,08,14,00,10,23.90
2010,08,14,00,11,23.80
2010,08,14,00,12,23.70
2010,08,14,00,13,23.50
2010,08,14,00,14,23.40
2010,08,14,00,15,23.30
2010,08,14,00,16,23.30
2010,08,14,00,17,23.20
2010,08,14,00,18,23.20
2010,08,14,00,19,23.10
2010,08,14,00,20,23.10
2010,08,14,00,21,23.10
2010,08,14,00,22,23.00
2010,08,14,00,23,22.90
2010,08,14,00,24,22.90
2010,08,14,00,25,22.90
2010,08,14,00,26,22.90
2010,08,14,00,27,22.90
2010,08,14,00,28,23.00
2010,08,14,00,29,23.10
2010,08,14,00,30,23.10
2010,08,14,00,31,23.10
2010,08,14,00,32,23.10
2010,08,14,00,33,23.10
2010,08,14,00,34,23.10
2010,08,14,00,35,23.20
2010,08,14,00,36,23.20
2010,08,14,00,37,23.10
2010,08,14,00,38,23.10
2010,08,14,00,39,23.10
2010,08,14,00,40,23.10
2010,08,14,00,41,23.10
2010,08,14,00,42,23.10
2010,08,14,00,43,23.10
2010,08,14,00,44,23.10
2010,08,14,00,45,23.20
2010,08,14,00,46,23.20
2010,08,14,00,47,23.10
2010,08,14,00,48,23.10
2010,08,14,00,49,23.10
2010,08,14,00,50,23.20
2010,08,14,00,51,23.20
2010,08,14,00,52,23.10
2010,08,14,00,53,23.20
2010,08,14,00,54,23.20
2010,08,14,00,55,23.10
2010,08,14,00,56,23.10
2010,08,14,00,57,23.10
2010,08,14,00,58,23.00
2010,08,14,00,59,23.10
2010,08,14,01,00,23.10
2010,08,14,01,01,23.20
2010,08,14,01,02,23.20
2010,08,14,01,03,23.20
2010,08,14,01,04,23.20
2010,08,14,01,05,23.20
2010,08,14,01,06,23.20
2010,08,14,01,07,23.20
2010,08,14,01,08,23.20
2010,08,14,01,09,23.20
2010,08,14,01,10,23.10
2010,08,14,01,11,23.20
2010,08,14,01,12,23.20
2010,08,14,01,13,23.20
2010,08,14,01,14,23.20
2010,08,14,01,15,23.10
2010,08,14,01,16,23.10
2010,08,14,01,17,23.00
2010,08,14,01,18,22.90
2010,08,14,01,19,22.90
2010,08,14,01,20,22.80
2010,08,14,01,21,22.70
2010,08,14,01,22,22.60
2010,08,14,01,23,22.50
2010,08,14,01,24,22.40
2010,08,14,01,25,22.30
2010,08,14,01,26,22.30
2010,08,14,01,27,22.20
2010,08,14,01,28,22.10
2010,08,14,01,29,22.10
2010,08,14,01,30,22.00
2010,08,14,01,31,22.00
2010,08,14,01,32,22.00
2010,08,14,01,33,21.90
2010,08,14,01,34,21.90
2010,08,14,01,35,21.90
2010,08,14,01,36,21.80
2010,08,14,01,37,21.80
2010,08,14,01,38,21.80
2010,08,14,01,39,21.80
2010,08,14,01,40,21.80
2010,08,14,01,41,21.80
2010,08,14,01,42,21.70
2010,08,14,01,43,21.70
2010,08,14,01,44,21.70
2010,08,14,01,45,21.70
2010,08,14,01,46,21.70
2010,08,14,01,47,21.60
2010,08,14,01,48,21.60
2010,08,14,01,49,21.60
2010,08,14,01,50,21.60
2010,08,14,01,51,21.50
2010,08,14,01,52,21.40
2010,08,14,01,53,21.30
2010,08,14,01,54,21.30
2010,08,14,01,55,21.30
2010,08,14,01,56,21.30
2010,08,14,01,57,21.20
2010,08,14,01,58,21.10
2010,08,14,01,59,21.10
2010,08,14,02,00,21.00
2010,08,14,02,01,20.90
2010,08,14,02,02,20.80
2010,08,14,02,03,20.80
2010,08,14,02,04,20.70
2010,08,14,02,05,20.70
2010,08,14,02,06,20.80
2010,08,14,02,07,20.80
2010,08,14,02,08,20.90
2010,08,14,02,09,21.10
2010,08,14,02,10,21.30
2010,08,14,02,11,21.40
2010,08,14,02,12,21.50
2010,08,14,02,13,21.60
2010,08,14,02,14,21.60
2010,08,14,02,15,21.60
2010,08,14,02,16,21.60
2010,08,14,02,17,21.60
2010,08,14,02,18,21.60
2010,08,14,02,19,21.50
2010,08,14,02,20,21.40
2010,08,14,02,21,21.40
2010,08,14,02,22,21.30
2010,08,14,02,23,21.30
2010,08,14,02,24,21.30
2010,08,14,02,25,21.20
2010,08,14,02,26,21.20
2010,08,14,02,27,21.10
2010,08,14,02,28,21.10
2010,08,14,02,29,21.00
2010,08,14,02,30,21.00
2010,08,14,02,31,21.00
2010,08,14,02,32,20.90
2010,08,14,02,33,20.80
2010,08,14,02,34,20.80
2010,08,14,02,35,20.70
2010,08,14,02,36,20.70
2010,08,14,02,37,20.60
2010,08,14,02,38,20.60
2010,08,14,02,39,20.50
2010,08,14,02,40,20.40
2010,08,14,02,41,20.40
2010,08,14,02,42,20.30
2010,08,14,02,43,20.20
2010,08,14,02,44,20.20
2010,08,14,02,45,20.10
2010,08,14,02,46,20.00
2010,08,14,02,47,19.90
2010,08,14,02,48,19.90
2010,08,14,02,49,19.90
2010,08,14,02,50,19.80
2010,08,14,02,51,19.80
2010,08,14,02,52,19.70
2010,08,14,02,53,19.70
2010,08,14,02,54,19.70
2010,08,14,02,55,19.70
2010,08,14,02,56,19.60
2010,08,14,02,57,19.60
2010,08,14,02,58,19.60
2010,08,14,02,59,19.60
2010,08,14,03,00,19.60
2010,08,14,03,01,19.60
2010,08,14,03,02,19.60
2010,08,14,03,03,19.60
2010,08,14,03,04,19.60
2010,08,14,03,05,19.60
2010,08,14,03,06,19.60
2010,08,14,03,07,19.60
2010,08,14,03,08,19.60
2010,08,14,03,09,19.60
2010,08,14,03,10,19.60
2010,08,14,03,11,19.50
2010,08,14,03,12,19.50
2010,08,14,03,13,19.50
2010,08,14,03,14,19.50
2010,08,14,03,15,19.50
2010,08,14,03,16,19.40
2010,08,14,03,17,19.40
2010,08,14,03,18,19.40
2010,08,14,03,19,19.40
2010,08,14,03,20,19.40
2010,08,14,03,21,19.30
2010,08,14,03,22,19.30
2010,08,14,03,23,19.30
2010,08,14,03,24,19.30
2010,08,14,03,25,19.30
2010,08,14,03,26,19.30
2010,08,14,03,27,19.20
2010,08,14,03,28,19.20
2010,08,14,03,29,19.10
2010,08,14,03,30,19.10
2010,08,14,03,31,19.10
2010,08,14,03,32,19.10
2010,08,14,03,33,19.10
2010,08,14,03,34,19.10
2010,08,14,03,35,19.10
2010,08,14,03,36,19.10
2010,08,14,03,37,19.10
2010,08,14,03,38,19.10
2010,08,14,03,39,18.90
2010,08,14,03,40,18.90
2010,08,14,03,41,19.00
2010,08,14,03,42,19.10
2010,08,14,03,43,19.10
2010,08,14,03,44,19.20
2010,08,14,03,45,19.30
2010,08,14,03,46,19.30
2010,08,14,03,47,19.40
2010,08,14,03,48,19.40
2010,08,14,03,49,19.40
2010,08,14,03,50,19.40
2010,08,14,03,51,19.40
2010,08,14,03,52,19.40
2010,08,14,03,53,19.40
2010,08,14,03,54,19.40
2010,08,14,03,55,19.40
2010,08,14,03,56,19.40
2010,08,14,03,57,19.40
2010,08,14,03,58,19.40
2010,08,14,03,59,19.40
2010,08,14,04,00,19.40
2010,08,14,04,01,19.40
2010,08,14,04,02,19.40
2010,08,14,04,03,19.40
2010,08,14,04,04,19.40
2010,08,14,04,05,19.30
2010,08,14,04,06,19.30
2010,08,14,04,07,19.20
2010,08,14,04,08,19.20
2010,08,14,04,09,19.10
2010,08,14,04,10,19.10
2010,08,14,04,11,19.10
2010,08,14,04,12,19.10
2010,08,14,04,13,19.10
2010,08,14,04,14,19.10
2010,08,14,04,15,19.00
2010,08,14,04,16,19.00
2010,08,14,04,17,18.90
2010,08,14,04,18,18.90
2010,08,14,04,19,18.90
2010,08,14,04,20,18.90
2010,08,14,04,21,18.90
2010,08,14,04,22,18.90
2010,08,14,04,23,19.00
2010,08,14,04,24,19.10
2010,08,14,04,25,19.10
2010,08,14,04,26,19.10
2010,08,14,04,27,19.20
2010,08,14,04,28,19.30
2010,08,14,04,29,19.40
2010,08,14,04,30,19.50
2010,08,14,04,31,19.70
2010,08,14,04,32,19.80
2010,08,14,04,33,19.90
2010,08,14,04,34,20.00
2010,08,14,04,35,20.10
2010,08,14,04,36,20.20
2010,08,14,04,37,20.20
2010,08,14,04,38,20.30
2010,08,14,04,39,20.30
2010,08,14,04,40,20.30
2010,08,14,04,41,20.20
2010,08,14,04,42,20.20
2010,08,14,04,43,20.20
2010,08,14,04,44,20.10
2010,08,14,04,45,20.00
2010,08,14,04,46,19.90
2010,08,14,04,47,19.90
2010,08,14,04,48,19.80
2010,08,14,04,49,19.70
2010,08,14,04,50,19.60
2010,08,14,04,51,19.50
2010,08,14,04,52,19.40
2010,08,14,04,53,19.40
2010,08,14,04,54,19.30
2010,08,14,04,55,19.30
2010,08,14,04,56,19.30
2010,08,14,04,57,19.30
2010,08,14,04,58,19.20
2010,08,14,04,59,19.20
2010,08,14,05,00,19.20
2010,08,14,05,01,19.20
2010,08,14,05,02,19.10
2010,08,14,05,03,19.10
2010,08,14,05,04,19.10
2010,08,14,05,05,19.10
2010,08,14,05,06,19.10
2010,08,14,05,07,19.10
2010,08,14,05,08,19.20
2010,08,14,05,09,19.20
2010,08,14,05,10,19.20
2010,08,14,05,11,19.30
2010,08,14,05,12,19.30
2010,08,14,05,13,19.40
2010,08,14,05,14,19.40
2010,08,14,05,15,19.40
2010,08,14,05,16,19.40
2010,08,14,05,17,19.50
2010,08,14,05,18,19.50
2010,08,14,05,19,19.50
2010,08,14,05,20,19.60
2010,08,14,05,21,19.60
2010,08,14,05,22,19.60
2010,08,14,05,23,19.60
2010,08,14,05,24,19.60
2010,08,14,05,25,19.70
2010,08,14,05,26,19.70
2010,08,14,05,27,19.70
2010,08,14,05,28,19.70
2010,08,14,05,29,19.70
2010,08,14,05,30,19.70
2010,08,14,05,31,19.70
2010,08,14,05,32,19.80
2010,08,14,05,33,19.80
2010,08,14,05,34,19.80
2010,08,14,05,35,19.80
2010,08,14,05,36,19.80
2010,08,14,05,37,19.80
2010,08,14,05,38,19.80
2010,08,14,05,39,19.80
2010,08,14,05,40,19.80
2010,08,14,05,41,19.70
2010,08,14,05,42,19.70
2010,08,14,05,43,19.70
2010,08,14,05,44,19.70
2010,08,14,05,45,19.70
2010,08,14,05,46,19.70
2010,08,14,05,47,19.60
2010,08,14,05,48,19.60
2010,08,14,05,49,19.60
2010,08,14,05,50,19.60
2010,08,14,05,51,19.60
2010,08,14,05,52,19.50
2010,08,14,05,53,19.50
2010,08,14,05,54,19.50
2010,08,14,05,55,19.40
2010,08,14,05,56,19.40
2010,08,14,05,57,19.40
2010,08,14,05,58,19.40
2010,08,14,05,59,19.30
2010,08,14,06,00,19.30
2010,08,14,06,01,19.30
2010,08,14,06,02,19.30
2010,08,14,06,03,19.30
2010,08,14,06,04,19.20
2010,08,14,06,05,19.20
2010,08,14,06,06,19.20
2010,08,14,06,07,19.10
2010,08,14,06,08,19.10
2010,08,14,06,09,19.10
2010,08,14,06,10,19.10
2010,08,14,06,11,19.10
2010,08,14,06,12,19.20
2010,08,14,06,13,19.20
2010,08,14,06,14,19.20
2010,08,14,06,15,19.20
2010,08,14,06,16,19.20
2010,08,14,06,17,19.30
2010,08,14,06,18,19.30
2010,08,14,06,19,19.40
2010,08,14,06,20,19.50
2010,08,14,06,21,19.60
2010,08,14,06,22,19.80
2010,08,14,06,23,20.00
2010,08,14,06,24,20.10
2010,08,14,06,25,20.20
2010,08,14,06,26,20.20
2010,08,14,06,27,20.20
2010,08,14,06,28,20.20
2010,08,14,06,29,20.20
2010,08,14,06,30,20.20
2010,08,14,06,31,20.10
2010,08,14,06,32,20.00
2010,08,14,06,33,19.90
2010,08,14,06,34,19.90
2010,08,14,06,35,19.80
2010,08,14,06,36,19.70
2010,08,14,06,37,19.60
2010,08,14,06,38,19.60
2010,08,14,06,39,19.50
2010,08,14,06,40,19.50
2010,08,14,06,41,19.50
2010,08,14,06,42,19.50
2010,08,14,06,43,19.50
2010,08,14,06,44,19.40
2010,08,14,06,45,19.50
2010,08,14,06,46,19.50
2010,08,14,06,47,19.50
2010,08,14,06,48,19.50
2010,08,14,06,49,19.50
2010,08,14,06,50,19.50
2010,08,14,06,51,19.50
2010,08,14,06,52,19.50
2010,08,14,06,53,19.60
2010,08,14,06,54,19.60
2010,08,14,06,55,19.60
2010,08,14,06,56,19.70
2010,08,14,06,57,19.70
2010,08,14,06,58,19.70
2010,08,14,06,59,19.70
2010,08,14,07,00,19.70
2010,08,14,07,01,19.70
2010,08,14,07,02,19.70
2010,08,14,07,03,19.70
2010,08,14,07,04,19.80
2010,08,14,07,05,19.80
2010,08,14,07,06,19.80
2010,08,14,07,07,19.80
2010,08,14,07,08,19.90
2010,08,14,07,09,19.90
2010,08,14,07,10,19.90
2010,08,14,07,11,19.90
2010,08,14,07,12,19.90
2010,08,14,07,13,19.90
2010,08,14,07,14,20.00
2010,08,14,07,15,20.10
2010,08,14,07,16,20.20
2010,08,14,07,17,20.30
2010,08,14,07,18,20.40
2010,08,14,07,19,20.50
2010,08,14,07,20,20.60
2010,08,14,07,21,20.70
2010,08,14,07,22,20.80
2010,08,14,07,23,20.90
2010,08,14,07,24,20.90
2010,08,14,07,25,21.00
2010,08,14,07,26,21.10
2010,08,14,07,27,21.20
2010,08,14,07,28,21.30
2010,08,14,07,29,21.30
2010,08,14,07,30,21.30
2010,08,14,07,31,21.40
2010,08,14,07,32,21.40
2010,08,14,07,33,21.60
2010,08,14,07,34,21.60
2010,08,14,07,35,21.60
2010,08,14,07,36,21.60
2010,08,14,07,37,21.60
2010,08,14,07,38,21.60
2010,08,14,07,39,21.70
2010,08,14,07,40,21.70
2010,08,14,07,41,21.70
2010,08,14,07,42,21.70
2010,08,14,07,43,21.80
2010,08,14,07,44,21.80
2010,08,14,07,45,21.80
2010,08,14,07,46,21.90
2010,08,14,07,47,21.90
2010,08,14,07,48,22.00
2010,08,14,07,49,22.00
2010,08,14,07,50,22.00
2010,08,14,07,51,22.10
2010,08,14,07,52,22.10
2010,08,14,07,53,22.20
2010,08,14,07,54,22.20
2010,08,14,07,55,22.30
2010,08,14,07,56,22.40
2010,08,14,07,57,22.40
2010,08,14,07,58,22.50
2010,08,14,07,59,22.60
2010,08,14,08,00,22.60
2010,08,14,08,01,22.60
2010,08,14,08,02,22.70
2010,08,14,08,03,22.80
2010,08,14,08,04,22.80
2010,08,14,08,05,22.90
2010,08,14,08,06,22.90
2010,08,14,08,07,22.90
2010,08,14,08,08,22.90
2010,08,14,08,09,23.00
2010,08,14,08,10,23.10
2010,08,14,08,11,23.10
2010,08,14,08,12,23.10
2010,08,14,08,13,23.10
2010,08,14,08,14,23.20
2010,08,14,08,15,23.20
2010,08,14,08,16,23.30
2010,08,14,08,17,23.30
2010,08,14,08,18,23.30
2010,08,14,08,19,23.30
2010,08,14,08,20,23.40
2010,08,14,08,21,23.40
2010,08,14,08,22,23.50
2010,08,14,08,23,23.60
2010,08,14,08,24,23.60
2010,08,14,08,25,23.60
2010,08,14,08,26,23.70
2010,08,14,08,27,23.70
2010,08,14,08,28,23.70
2010,08,14,08,29,23.70
2010,08,14,08,30,23.70
2010,08,14,08,31,23.80
2010,08,14,08,32,23.90
2010,08,14,08,33,23.90
2010,08,14,08,34,24.00
2010,08,14,08,35,24.10
2010,08,14,08,36,24.10
2010,08,14,08,37,24.20
2010,08,14,08,38,24.30
2010,08,14,08,39,24.40
2010,08,14,08,40,24.40
2010,08,14,08,41,24.50
2010,08,14,08,42,24.50
2010,08,14,08,43,24.60
2010,08,14,08,44,24.60
2010,08,14,08,45,24.60
2010,08,14,08,46,24.70
2010,08,14,08,47,24.70
2010,08,14,08,48,24.70
2010,08,14,08,49,24.70
2010,08,14,08,50,24.80
2010,08,14,08,51,24.80
2010,08,14,08,52,24.80
2010,08,14,08,53,24.80
2010,08,14,08,54,24.80
2010,08,14,08,55,24.80
2010,08,14,08,56,24.80
2010,08,14,08,57,24.80
2010,08,14,08,58,24.80
2010,08,14,08,59,24.80
2010,08,14,09,00,24.80
2010,08,14,09,01,24.80
2010,08,14,09,02,24.80
2010,08,14,09,03,24.90
2010,08,14,09,04,24.90
2010,08,14,09,05,24.90
2010,08,14,09,06,24.90
2010,08,14,09,07,24.90
2010,08,14,09,08,24.90
2010,08,14,09,09,24.90
2010,08,14,09,10,24.90
2010,08,14,09,11,25.00
2010,08,14,09,12,24.90
2010,08,14,09,13,24.90
2010,08,14,09,14,24.90
2010,08,14,09,15,24.90
2010,08,14,09,16,24.90
2010,08,14,09,17,24.80
2010,08,14,09,18,24.80
2010,08,14,09,19,24.80
2010,08,14,09,20,24.70
2010,08,14,09,21,24.70
2010,08,14,09,22,24.70
2010,08,14,09,23,24.70
2010,08,14,09,24,24.70
2010,08,14,09,25,24.70
2010,08,14,09,26,24.70
2010,08,14,09,27,24.70
2010,08,14,09,28,24.70
2010,08,14,09,29,24.80
2010,08,14,09,30,24.80
2010,08,14,09,31,24.90
2010,08,14,09,32,24.90
2010,08,14,09,33,24.80
2010,08,14,09,34,24.80
2010,08,14,09,35,24.70
2010,08,14,09,36,24.70
2010,08,14,09,37,24.60
2010,08,14,09,38,24.60
2010,08,14,09,39,24.50
2010,08,14,09,40,24.50
2010,08,14,09,41,24.50
2010,08,14,09,42,24.50
2010,08,14,09,43,24.50
2010,08,14,09,44,24.60
2010,08,14,09,45,24.60
2010,08,14,09,46,24.60
2010,08,14,09,47,24.70
2010,08,14,09,48,24.80
2010,08,14,09,49,24.80
2010,08,14,09,50,24.90
2010,08,14,09,51,25.00
2010,08,14,09,52,25.10
2010,08,14,09,53,25.10
2010,08,14,09,54,25.20
2010,08,14,09,55,25.20
2010,08,14,09,56,25.20
2010,08,14,09,57,25.30
2010,08,14,09,58,25.30
2010,08,14,09,59,25.40
2010,08,14,10,00,25.40
2010,08,14,10,01,25.40
2010,08,14,10,02,25.50
2010,08,14,10,03,25.50
2010,08,14,10,04,25.50
2010,08,14,10,05,25.60
2010,08,14,10,06,25.60
2010,08,14,10,07,25.70
2010,08,14,10,08,25.60
2010,08,14,10,09,25.60
2010,08,14,10,10,25.60
2010,08,14,10,11,25.70
2010,08,14,10,12,25.80
2010,08,14,10,13,25.80
2010,08,14,10,14,25.90
2010,08,14,10,15,25.90
2010,08,14,10,16,25.90
2010,08,14,10,17,25.90
2010,08,14,10,18,25.90
2010,08,14,10,19,25.90
2010,08,14,10,20,25.90
2010,08,14,10,21,25.90
2010,08,14,10,22,26.00
2010,08,14,10,23,26.10
2010,08,14,10,24,26.20
2010,08,14,10,25,26.20
2010,08,14,10,26,26.20
2010,08,14,10,27,26.30
2010,08,14,10,28,26.40
2010,08,14,10,29,26.40
2010,08,14,10,30,26.40
2010,08,14,10,31,26.30
2010,08,14,10,32,26.10
2010,08,14,10,33,26.00
2010,08,14,10,34,25.90
2010,08,14,10,35,25.90
2010,08,14,10,36,25.80
2010,08,14,10,37,25.90
2010,08,14,10,38,25.90
2010,08,14,10,39,26.00
2010,08,14,10,40,26.20
2010,08,14,10,41,26.30
2010,08,14,10,42,26.30
2010,08,14,10,43,26.40
2010,08,14,10,44,26.40
2010,08,14,10,45,26.40
2010,08,14,10,46,26.40
2010,08,14,10,47,26.30
2010,08,14,10,48,26.30
2010,08,14,10,49,26.20
2010,08,14,10,50,26.20
2010,08,14,10,51,26.20
2010,08,14,10,52,26.20
2010,08,14,10,53,26.30
2010,08,14,10,54,26.30
2010,08,14,10,55,26.30
2010,08,14,10,56,26.30
2010,08,14,10,57,26.30
2010,08,14,10,58,26.30
2010,08,14,10,59,26.30
2010,08,14,11,00,26.40
2010,08,14,11,01,26.50
2010,08,14,11,02,26.60
2010,08,14,11,03,26.60
2010,08,14,11,04,26.70
2010,08,14,11,05,26.70
2010,08,14,11,06,26.70
2010,08,14,11,07,26.80
2010,08,14,11,08,26.80
2010,08,14,11,09,26.90
2010,08,14,11,10,27.00
2010,08,14,11,11,27.10
2010,08,14,11,12,27.10
2010,08,14,11,13,27.10
2010,08,14,11,14,27.00
2010,08,14,11,15,26.90
2010,08,14,11,16,26.90
2010,08,14,11,17,26.80
2010,08,14,11,18,26.70
2010,08,14,11,19,26.70
2010,08,14,11,20,26.70
2010,08,14,11,21,26.80
2010,08,14,11,22,26.80
2010,08,14,11,23,26.90
2010,08,14,11,24,26.90
2010,08,14,11,25,27.00
2010,08,14,11,26,27.10
2010,08,14,11,27,27.10
2010,08,14,11,28,27.00
2010,08,14,11,29,26.90
2010,08,14,11,30,27.00
2010,08,14,11,31,27.10
2010,08,14,11,32,27.20
2010,08,14,11,33,27.10
2010,08,14,11,34,27.00
2010,08,14,11,35,26.90
2010,08,14,11,36,26.90
2010,08,14,11,37,27.00
2010,08,14,11,38,27.10
2010,08,14,11,39,27.10
2010,08,14,11,40,27.20
2010,08,14,11,41,27.20
2010,08,14,11,42,27.10
2010,08,14,11,43,27.10
2010,08,14,11,44,27.00
2010,08,14,11,45,26.90
2010,08,14,11,46,27.00
2010,08,14,11,47,27.20
2010,08,14,11,48,27.30
2010,08,14,11,49,27.30
2010,08,14,11,50,27.30
2010,08,14,11,51,27.40
2010,08,14,11,52,27.50
2010,08,14,11,53,27.60
2010,08,14,11,54,27.70
2010,08,14,11,55,27.80
2010,08,14,11,56,27.80
2010,08,14,11,57,27.70
2010,08,14,11,58,27.60
2010,08,14,11,59,27.40
2010,08,14,12,00,27.30
2010,08,14,12,01,27.30
2010,08,14,12,02,27.40
2010,08,14,12,03,27.40
2010,08,14,12,04,27.50
2010,08,14,12,05,27.60
2010,08,14,12,06,27.60
2010,08,14,12,07,27.60
2010,08,14,12,08,27.60
2010,08,14,12,09,27.60
2010,08,14,12,10,27.40
2010,08,14,12,11,27.40
2010,08,14,12,12,27.40
2010,08,14,12,13,27.40
2010,08,14,12,14,27.40
2010,08,14,12,15,27.50
2010,08,14,12,16,27.60
2010,08,14,12,17,27.60
2010,08,14,12,18,27.60
2010,08,14,12,19,27.70
2010,08,14,12,20,27.70
2010,08,14,12,21,27.80
2010,08,14,12,22,28.00
2010,08,14,12,23,28.20
2010,08,14,12,24,28.30
2010,08,14,12,25,28.40
2010,08,14,12,26,28.50
2010,08,14,12,27,28.60
2010,08,14,12,28,28.80
2010,08,14,12,29,28.80
2010,08,14,12,30,28.60
2010,08,14,12,31,28.50
2010,08,14,12,32,28.30
2010,08,14,12,33,28.20
2010,08,14,12,34,28.20
2010,08,14,12,35,28.10
2010,08,14,12,36,28.10
2010,08,14,12,37,28.20
2010,08,14,12,38,28.30
2010,08,14,12,39,28.50
2010,08,14,12,40,28.60
2010,08,14,12,41,28.70
2010,08,14,12,42,28.80
2010,08,14,12,43,28.90
2010,08,14,12,44,29.00
2010,08,14,12,45,29.10
2010,08,14,12,46,29.30
2010,08,14,12,47,29.40
2010,08,14,12,48,29.50
2010,08,14,12,49,29.60
2010,08,14,12,50,29.70
2010,08,14,12,51,29.70
2010,08,14,12,52,29.70
2010,08,14,12,53,29.50
2010,08,14,12,54,29.30
2010,08,14,12,55,29.30
2010,08,14,12,56,29.30
2010,08,14,12,57,29.30
2010,08,14,12,58,29.20
2010,08,14,12,59,29.10
2010,08,14,13,00,29.00
2010,08,14,13,01,28.90
2010,08,14,13,02,28.70
2010,08,14,13,03,28.70
2010,08,14,13,04,28.70
2010,08,14,13,05,28.80
2010,08,14,13,06,28.80
2010,08,14,13,07,28.90
2010,08,14,13,08,29.00
2010,08,14,13,09,29.10
2010,08,14,13,10,29.10
2010,08,14,13,11,29.10
2010,08,14,13,12,29.20
2010,08,14,13,13,29.30
2010,08,14,13,14,29.40
2010,08,14,13,15,29.50
2010,08,14,13,16,29.60
2010,08,14,13,17,29.70
2010,08,14,13,18,29.70
2010,08,14,13,19,29.70
2010,08,14,13,20,29.70
2010,08,14,13,21,29.80
2010,08,14,13,22,29.90
2010,08,14,13,23,30.00
2010,08,14,13,24,30.10
2010,08,14,13,25,30.00
2010,08,14,13,26,30.00
2010,08,14,13,27,30.10
2010,08,14,13,28,30.10
2010,08,14,13,29,30.20
2010,08,14,13,30,30.30
2010,08,14,13,31,30.30
2010,08,14,13,32,30.20
2010,08,14,13,33,30.00
2010,08,14,13,34,29.90
2010,08,14,13,35,29.80
2010,08,14,13,36,29.80
2010,08,14,13,37,29.90
2010,08,14,13,38,29.90
2010,08,14,13,39,29.90
2010,08,14,13,40,29.80
2010,08,14,13,41,29.70
2010,08,14,13,42,29.70
2010,08,14,13,43,29.80
2010,08,14,13,44,29.90
2010,08,14,13,45,30.00
2010,08,14,13,46,30.10
2010,08,14,13,47,30.20
2010,08,14,13,48,30.20
2010,08,14,13,49,30.20
2010,08,14,13,50,30.10
2010,08,14,13,51,30.00
2010,08,14,13,52,29.90
2010,08,14,13,53,30.00
2010,08,14,13,54,30.10
2010,08,14,13,55,29.90
2010,08,14,13,56,29.90
2010,08,14,13,57,29.80
2010,08,14,13,58,29.80
2010,08,14,13,59,29.80
2010,08,14,14,00,29.70
2010,08,14,14,01,29.70
2010,08,14,14,02,29.80
2010,08,14,14,03,29.80
2010,08,14,14,04,29.70
2010,08,14,14,05,29.70
2010,08,14,14,06,29.60
2010,08,14,14,07,29.60
2010,08,14,14,08,29.60
2010,08,14,14,09,29.60
2010,08,14,14,10,29.60
2010,08,14,14,11,29.60
2010,08,14,14,12,29.50
2010,08,14,14,13,29.50
2010,08,14,14,14,29.60
2010,08,14,14,15,29.70
2010,08,14,14,16,29.80
2010,08,14,14,17,29.80
2010,08,14,14,18,29.80
2010,08,14,14,19,29.80
2010,08,14,14,20,29.80
2010,08,14,14,21,29.90
2010,08,14,14,22,30.00
2010,08,14,14,23,30.20
2010,08,14,14,24,30.30
2010,08,14,14,25,30.30
2010,08,14,14,26,30.30
2010,08,14,14,27,30.40
2010,08,14,14,28,30.40
2010,08,14,14,29,30.60
2010,08,14,14,30,30.60
2010,08,14,14,31,30.80
2010,08,14,14,32,31.00
2010,08,14,14,33,31.10
2010,08,14,14,34,31.20
2010,08,14,14,35,31.20
2010,08,14,14,36,31.20
2010,08,14,14,37,31.20
2010,08,14,14,38,31.20
2010,08,14,14,39,31.20
2010,08,14,14,40,31.20
2010,08,14,14,41,31.20
2010,08,14,14,42,31.20
2010,08,14,14,43,31.20
2010,08,14,14,44,31.20
2010,08,14,14,45,31.30
2010,08,14,14,46,31.30
2010,08,14,14,47,31.30
2010,08,14,14,48,31.30
2010,08,14,14,49,31.30
2010,08,14,14,50,31.30
2010,08,14,14,51,31.30
2010,08,14,14,52,31.30
2010,08,14,14,53,31.30
2010,08,14,14,54,31.40
2010,08,14,14,55,31.40
2010,08,14,14,56,31.40
2010,08,14,14,57,31.50
2010,08,14,14,58,31.70
2010,08,14,14,59,31.70
2010,08,14,15,00,31.80
2010,08,14,15,01,31.90
2010,08,14,15,02,31.90
2010,08,14,15,03,32.10
2010,08,14,15,04,32.10
2010,08,14,15,05,32.10
2010,08,14,15,06,32.20
2010,08,14,15,07,32.20
2010,08,14,15,08,32.30
2010,08,14,15,09,32.40
2010,08,14,15,10,32.40
2010,08,14,15,11,32.50
2010,08,14,15,12,32.50
2010,08,14,15,13,32.60
2010,08,14,15,14,32.60
2010,08,14,15,15,32.50
2010,08,14,15,16,32.50
2010,08,14,15,17,32.60
2010,08,14,15,18,32.60
2010,08,14,15,19,32.60
2010,08,14,15,20,32.80
2010,08,14,15,21,32.90
2010,08,14,15,22,32.90
2010,08,14,15,23,33.00
2010,08,14,15,24,33.00
2010,08,14,15,25,33.10
2010,08,14,15,26,33.10
2010,08,14,15,27,33.10
2010,08,14,15,28,33.10
2010,08,14,15,29,33.20
2010,08,14,15,30,33.20
2010,08,14,15,31,33.10
2010,08,14,15,32,33.00
2010,08,14,15,33,33.10
2010,08,14,15,34,33.10
2010,08,14,15,35,33.20
2010,08,14,15,36,33.20
2010,08,14,15,37,33.10
2010,08,14,15,38,33.10
2010,08,14,15,39,33.10
2010,08,14,15,40,33.00
2010,08,14,15,41,33.00
2010,08,14,15,42,32.90
2010,08,14,15,43,32.80
2010,08,14,15,44,32.60
2010,08,14,15,45,32.60
2010,08,14,15,46,32.60
2010,08,14,15,47,32.50
2010,08,14,15,48,32.40
2010,08,14,15,49,32.40
2010,08,14,15,50,32.30
2010,08,14,15,51,32.20
2010,08,14,15,52,32.10
2010,08,14,15,53,32.20
2010,08,14,15,54,32.10
2010,08,14,15,55,32.10
2010,08,14,15,56,32.20
2010,08,14,15,57,32.20
2010,08,14,15,58,32.20
2010,08,14,15,59,32.20
2010,08,14,16,00,32.20
2010,08,14,16,01,32.20
2010,08,14,16,02,32.30
2010,08,14,16,03,32.40
2010,08,14,16,04,32.40
2010,08,14,16,05,32.50
2010,08,14,16,06,32.60
2010,08,14,16,07,32.60
2010,08,14,16,08,32.50
2010,08,14,16,09,32.40
2010,08,14,16,10,32.30
2010,08,14,16,11,32.20
2010,08,14,16,12,32.20
2010,08,14,16,13,32.20
2010,08,14,16,14,32.30
2010,08,14,16,15,32.30
2010,08,14,16,16,32.30
2010,08,14,16,17,32.40
2010,08,14,16,18,32.50
2010,08,14,16,19,32.60
2010,08,14,16,20,32.60
2010,08,14,16,21,32.60
2010,08,14,16,22,32.80
2010,08,14,16,23,32.80
2010,08,14,16,24,32.90
2010,08,14,16,25,33.00
2010,08,14,16,26,33.00
2010,08,14,16,27,33.00
2010,08,14,16,28,33.00
2010,08,14,16,29,32.90
2010,08,14,16,30,32.90
2010,08,14,16,31,32.80
2010,08,14,16,32,32.80
2010,08,14,16,33,32.60
2010,08,14,16,34,32.50
2010,08,14,16,35,32.40
2010,08,14,16,36,32.30
2010,08,14,16,37,32.40
2010,08,14,16,38,32.40
2010,08,14,16,39,32.50
2010,08,14,16,40,32.60
2010,08,14,16,41,32.60
2010,08,14,16,42,32.80
2010,08,14,16,43,32.60
2010,08,14,16,44,32.50
2010,08,14,16,45,32.50
2010,08,14,16,46,32.50
2010,08,14,16,47,32.50
2010,08,14,16,48,32.50
2010,08,14,16,49,32.50
2010,08,14,16,50,32.50
2010,08,14,16,51,32.40
2010,08,14,16,52,32.40
2010,08,14,16,53,32.50
2010,08,14,16,54,32.50
2010,08,14,16,55,32.60
2010,08,14,16,56,32.60
2010,08,14,16,57,32.60
2010,08,14,16,58,32.60
2010,08,14,16,59,32.60
2010,08,14,17,00,32.60
2010,08,14,17,01,32.60
2010,08,14,17,02,32.60
2010,08,14,17,03,32.60
2010,08,14,17,04,32.60
2010,08,14,17,05,32.50
2010,08,14,17,06,32.50
2010,08,14,17,07,32.50
2010,08,14,17,08,32.50
2010,08,14,17,09,32.40
2010,08,14,17,10,32.40
2010,08,14,17,11,32.40
2010,08,14,17,12,32.40
2010,08,14,17,13,32.50
2010,08,14,17,14,32.50
2010,08,14,17,15,32.50
2010,08,14,17,16,32.60
2010,08,14,17,17,32.60
2010,08,14,17,18,32.60
2010,08,14,17,19,32.60